[[{"header":{"parameterUnit":"m.s-1","parameterCategory":1,"la1":30.2991,"la2":30.254,"lo1":-89.0895,"lo2":-89.0444,"dy":0.0017,"dx":0.0017,"nx":28,"ny":28,"refTime":"2025-08-10T03:00:00:Z","depth":0,"parameterNumber":2,"parameterNumberName":"U-component_of_WINDS"},"data":[0,0,0,0,0,0,0,0,0,0,0,0,0,0,0,0,0,0,0,0,0,0,0,0,0,0,0,0,0,0,0,0,0,0,0,0,0,0,0,0,0,0,0,0,0,0,0,0,0,0,0,0,0,0,0,0,0,0,-3.867,-3.867,0,-3.8674,-3.8674,-3.8674,-3.8573,-3.857,-3.8567,-3.8565,-3.8569,-3.8572,-3.8574,0,0,0,0,0,0,0,0,0,0,0,0,0,-3.8574,-3.8577,-3.867,-3.867,-3.867,-3.8674,-3.8674,-3.8674,-3.8573,-3.857,-3.8567,-3.8563,-3.8568,-3.8571,-3.8575,0,0,0,0,0,0,0,0,0,0,0,0,0,-3.8601,-3.8577,-3.867,-3.862,-3.8616,-3.8674,-3.8674,-3.8674,-3.8574,-3.857,-3.8566,-3.8562,-3.8567,-3.8571,-3.8575,-3.8681,0,0,-3.8587,-3.8589,0,0,0,0,0,0,0,0,-3.86,-3.8605,-3.8627,-3.8624,-3.8619,-3.8619,-3.8642,-3.8677,-3.8575,-3.859,-3.8565,-3.856,-3.8589,-3.8591,-3.8601,-3.8682,-3.8682,-3.8588,-3.859,-3.8592,-3.8593,0,0,0,0,0,0,0,-3.8598,-3.8604,-3.8671,-3.8628,-3.8623,-3.8597,-3.8597,-3.8648,-3.8612,-3.8588,-3.8581,-3.8583,-3.8586,-3.8597,-3.86,-3.8682,-3.8587,-3.8591,-3.8593,-3.8595,-3.885,-3.8854,0,0,0,0,0,0,-3.8603,-3.8603,-3.8671,-3.8672,-3.8599,-3.8603,-3.8602,-3.8623,-3.8611,-3.8606,-3.8586,-3.8578,-3.8592,-3.8595,-3.86,-3.8722,-3.8592,-3.8595,-3.8598,-3.8845,-3.8851,-3.8855,0,0,0,0,0,0,-3.8601,-3.861,-3.8671,-3.8635,-3.8641,-3.8609,-3.8633,-3.8625,-3.8636,-3.861,-3.8603,-3.8604,-3.8589,-3.8594,-3.8662,-3.8721,-3.8597,-3.8601,-3.884,-3.8847,-3.8853,-3.897,0,0,0,0,0,0,-3.8599,-3.861,-3.865,-3.8637,-3.8644,-3.8733,-3.8637,-3.8628,-3.8643,-3.8633,-3.8625,-3.862,-3.8586,-3.8656,-3.8666,-3.8724,-3.8604,-3.8835,-3.8843,-3.8851,-3.896,-3.8979,-3.8996,0,0,0,0,0,-3.8596,-3.8683,-3.8652,-3.8661,-3.8693,-3.8737,-3.8741,-3.87,-3.8649,-3.8688,-3.8671,-3.862,-3.8714,-3.8664,-3.8674,-3.8735,-3.8831,-3.8841,-3.885,-3.8952,-3.8976,-3.8995,0,0,0,0,0,0,-3.8703,-3.868,-3.8646,-3.8732,-3.8737,-3.872,-3.8768,-3.8726,-3.8746,-3.8736,-3.8685,-3.8684,-3.876,-3.8754,-3.8699,-3.8837,-3.8763,-3.8775,-3.8837,-3.8859,-3.8877,-3.8876,-3.8607,0,0,0,0,0,-3.8737,-3.8775,-3.8752,-3.883,-3.8834,-3.8802,-3.8819,-3.8788,-3.8791,-3.8793,-3.8781,-3.8787,-3.8817,-3.8838,-3.8865,-3.896,-3.8956,-3.9007,-3.9024,-3.9039,-3.905,-3.9099,-3.9121,-3.8888,-3.8888,-3.8887,0,0,-3.8807,-3.8799,-3.8826,-3.8851,-3.8852,-3.8892,-3.8804,-3.885,-3.8879,-3.88,-3.8862,-3.8854,-3.8857,-3.8939,-3.8974,-3.8936,-3.9114,-3.9052,-3.9063,-3.9066,-3.9111,-3.9133,-3.9153,-3.8894,-3.8893,-3.8892,0,0,-3.8954,-3.8952,-3.9016,-3.9019,-3.902,-3.8998,-3.9014,-3.9003,-3.8994,-3.9057,-3.8998,-3.9032,-3.9086,-3.909,-3.9099,-3.925,-3.9203,-3.926,-3.9352,-3.94,-3.9419,-3.9435,-3.9487,-3.9507,-3.9271,-3.9271,-3.9272,0,-3.904,-3.9098,-3.9054,-3.9104,-3.9117,-3.9048,-3.9112,-3.9116,-3.9127,-3.9138,-3.9096,-3.9162,-3.9159,-3.924,-3.9277,-3.9287,-3.9303,-3.9259,-3.942,-3.9435,-3.9449,-3.9499,-3.9519,-3.9278,-3.9277,-3.9277,-3.9276,0,-3.9203,-3.9245,-3.9296,-3.9308,-3.9327,-3.9384,-3.9349,-3.9373,-3.9341,-3.9323,-3.9387,-3.9382,-3.9406,-3.9423,-3.9392,-3.95,-3.9477,-3.9428,-3.9353,-3.9479,-3.9525,-3.9543,-3.9288,-3.9285,-3.9283,-3.9282,0,0,-3.9417,-3.9404,-3.9424,-3.9428,-3.9426,-3.9457,-3.9511,-3.9534,-3.9556,-3.9566,-3.961,-3.9658,-3.9613,-3.9623,-3.9592,-3.9635,-3.9753,-3.9581,-3.958,-3.9612,-3.9871,-3.9907,-3.9929,-3.9723,-3.9727,-3.9729,-3.987,0,-3.9558,-3.9649,-3.9612,-3.9706,-3.9743,-3.9679,-3.9726,-3.9729,-3.9715,-3.9744,-3.9728,-3.9762,-3.9701,-3.9707,-3.9746,-3.9731,-3.9804,-3.972,-3.9762,-3.9764,-3.9762,-3.9953,-3.999,-4.0124,-3.9888,-3.9891,-3.9893,0,-3.9735,-3.9752,-3.985,-3.9841,-3.9855,-3.9898,-3.9917,-3.9946,-3.9949,-3.9935,-3.9948,-3.9908,-3.996,-3.9887,-3.9958,-3.9902,-3.9917,-3.9912,-3.9916,-3.9917,-3.9835,-3.9958,-4.0165,-4.0185,-3.9921,-3.9919,-3.9917,0,-3.9879,-3.9927,-3.9991,-3.9998,-3.9989,-4.002,-4.0018,-4.0018,-4.0034,-4.0051,-4.0061,-4.0084,-4.0096,-4.0115,-4.0082,-4.0032,-4.0158,-4.0082,-4.0147,-4.0148,-4.0175,-4.0174,-4.0387,-4.0189,-4.0188,-4.0188,-4.0188,0,-4.004,-4.0102,-4.0056,-4.0095,-4.0163,-4.012,-4.0189,-4.018,-4.018,-4.0216,-4.0163,-4.0199,-4.0153,-4.0185,-4.016,-4.0222,-4.0229,-4.0219,-4.0211,-4.0223,-4.0224,-4.023,-4.022,-4.0193,-4.0192,-4.0191,-4.019,0,-4.0211,-4.0183,-4.0248,-4.0235,-4.0233,-4.0284,-4.0272,-4.0309,-4.0291,-4.0338,-4.0347,-4.0319,-4.0353,-4.0323,-4.0356,-4.0339,-4.0422,-4.0401,-4.042,-4.0414,-4.0481,-4.0474,-4.0704,-4.0732,-4.0518,-4.052,-4.0522,0,-4.0314,-4.036,-4.0352,-4.0373,-4.0374,-4.0408,-4.0425,-4.0385,-4.0405,-4.0412,-4.0448,-4.0478,-4.0499,-4.0557,-4.054,-4.0565,-4.0544,-4.0623,-4.0547,-4.0557,-4.0543,-4.054,-4.0544,-4.0638,-4.064,-4.0642,-4.0644,0,-4.05,-4.0484,-4.051,-4.0532,-4.0553,-4.0569,-4.058,-4.06,-4.0559,-4.0584,-4.0618,-4.0635,-4.0669,-4.0699,-4.0719,-4.0717,-4.0674,-4.0668,-4.0685,-4.0696,-4.0704,-4.0699,-4.046,-4.0663,-4.0661,-4.0659,-4.0658,-4.0658,-4.0639,-4.0677,-4.0677,-4.0708,-4.0713,-4.0724,-4.0757,-4.0744,-4.0772,-4.0796,-4.0771,-4.0813,-4.0815,-4.0837,-4.0841,-4.0873,-4.084,-4.0864,-4.087,-4.0876,-4.0885,-4.0701,-4.0877,-4.0876,-4.0876,-4.0875,-4.0875,0,-4.0821,-4.0819,-4.0848,-4.0865,-4.0889,-4.0847,-4.0857,-4.0881,-4.0918,-4.0924,-4.0946,-4.0986,-4.1015,-4.1001,-4.1027,-4.1055,-4.1036,-4.1063,-4.106,-4.106,-4.0913,-4.0896,-4.1078,-4.1078,-4.1078,-4.1078,-4.1078,-4.1078,-4.0919,-4.098,-4.0965,-4.1028,-4.1025,-4.1065,-4.1074,-4.1085,-4.1089,-4.1136,-4.116,-4.115,-4.1148,-4.1173,-4.1199,-4.1194,-4.1205,-4.1239,-4.1227,-4.109,-4.107,-4.1051,-4.1034,-4.1242,-4.1242,-4.137,-4.1371,-4.1372]},{"header":{"parameterUnit":"m.s-1","parameterCategory":1,"la1":30.2991,"la2":30.254,"lo1":-89.0895,"lo2":-89.0444,"dy":0.0017,"dx":0.0017,"nx":28,"ny":28,"refTime":"2025-08-10T03:00:00:Z","depth":0,"parameterNumber":3,"parameterNumberName":"V-component_of_WINDS"},"data":[0,0,0,0,0,0,0,0,0,0,0,0,0,0,0,0,0,0,0,0,0,0,0,0,0,0,0,0,0,0,0,0,0,0,0,0,0,0,0,0,0,0,0,0,0,0,0,0,0,0,0,0,0,0,0,0,0,0,-1.001,-1.0011,0,-1.0062,-1.0063,-1.0063,-1.0077,-1.0077,-1.0077,-1.0076,-1.0127,-1.0128,-1.013,0,0,0,0,0,0,0,0,0,0,0,0,0,-0.9918,-0.992,-1.001,-1.0011,-1.0011,-1.0062,-1.0063,-1.0063,-1.0077,-1.0077,-1.0077,-1.0076,-1.0126,-1.0128,-1.013,0,0,0,0,0,0,0,0,0,0,0,0,0,-0.9963,-0.9921,-1.001,-1.0024,-1.0026,-1.0062,-1.0063,-1.0063,-1.0077,-1.0077,-1.0076,-1.0076,-1.0125,-1.0128,-1.013,-1.0154,0,0,-1.0138,-1.0139,0,0,0,0,0,0,0,0,-0.996,-0.9966,-1.0022,-1.0023,-1.0026,-1.0063,-1.0049,-1.0094,-1.0077,-1.0058,-1.0076,-1.0076,-1.0105,-1.011,-1.012,-1.0156,-1.0158,-1.0138,-1.0139,-1.014,-1.0141,0,0,0,0,0,0,0,-0.9957,-0.9964,-1.003,-1.0022,-1.0025,-1.0027,-1.0033,-1.0057,-1.0083,-1.006,-1.0061,-1.0067,-1.0106,-1.0118,-1.0121,-1.0159,-1.0138,-1.014,-1.0141,-1.0142,-1.0215,-1.0216,0,0,0,0,0,0,-0.9952,-0.9961,-1.0029,-1.0032,-0.9991,-1.0029,-1.0035,-1.0051,-1.0083,-1.0088,-1.0067,-1.0067,-1.0114,-1.0119,-1.0123,-1.0152,-1.014,-1.0142,-1.0144,-1.0215,-1.0215,-1.0216,0,0,0,0,0,0,-0.995,-0.9958,-1.0027,-0.9997,-1.0006,-1.0031,-1.0048,-1.0052,-1.0064,-1.0089,-1.0093,-1.0074,-1.0114,-1.012,-1.0146,-1.0154,-1.0144,-1.0146,-1.0214,-1.0215,-1.0216,-1.0211,0,0,0,0,0,0,-0.9948,-0.9957,-0.9968,-0.9997,-1.0008,-1.005,-1.0049,-1.0054,-1.0068,-1.0069,-1.0097,-1.0101,-1.0114,-1.0142,-1.0148,-1.0157,-1.0148,-1.0214,-1.0215,-1.0215,-1.0211,-1.0212,-1.0212,0,0,0,0,0,-0.9944,-0.9964,-0.9968,-0.9976,-1.0021,-1.005,-1.0056,-1.0071,-1.0069,-1.0079,-1.0095,-1.01,-1.0152,-1.0145,-1.0152,-1.0162,-1.0213,-1.0214,-1.0215,-1.021,-1.0211,-1.0212,0,0,0,0,0,0,-0.9935,-0.9968,-0.9973,-1.0004,-1.0024,-1.0053,-1.0066,-1.0072,-1.0093,-1.0093,-1.011,-1.0116,-1.0141,-1.0154,-1.0145,-1.0185,-1.0183,-1.0185,-1.0176,-1.0178,-1.0178,-1.0175,-1.015,0,0,0,0,0,-0.9936,-0.9958,-0.9986,-1.001,-1.002,-1.0041,-1.0054,-1.0064,-1.0086,-1.0094,-1.0112,-1.0131,-1.0152,-1.0165,-1.0186,-1.0212,-1.0218,-1.0222,-1.0223,-1.0224,-1.0226,-1.0239,-1.0241,-1.022,-1.022,-1.022,0,0,-0.9939,-0.996,-0.9973,-1.0008,-1.0026,-1.0046,-1.0048,-1.0071,-1.0086,-1.0097,-1.0123,-1.0137,-1.0159,-1.0185,-1.0198,-1.0197,-1.0233,-1.0225,-1.0225,-1.0227,-1.024,-1.0242,-1.0244,-1.022,-1.022,-1.022,0,0,-0.9956,-0.9975,-0.9996,-1.0013,-1.0039,-1.0052,-1.0057,-1.0085,-1.0094,-1.0121,-1.0129,-1.0146,-1.0182,-1.0198,-1.021,-1.023,-1.0235,-1.0236,-1.0241,-1.0254,-1.0256,-1.0257,-1.0264,-1.0266,-1.0238,-1.0238,-1.0238,0,-0.9956,-0.999,-1.0006,-1.0028,-1.0042,-1.0054,-1.0075,-1.009,-1.012,-1.0129,-1.0128,-1.0172,-1.0188,-1.0217,-1.0222,-1.0232,-1.0237,-1.0234,-1.0254,-1.0256,-1.0258,-1.0264,-1.0266,-1.0238,-1.0238,-1.0238,-1.0238,0,-0.9989,-1.0011,-1.0025,-1.0055,-1.0071,-1.0092,-1.011,-1.0124,-1.0132,-1.0145,-1.017,-1.019,-1.0214,-1.0221,-1.0229,-1.0251,-1.025,-1.0251,-1.0249,-1.0259,-1.0266,-1.0268,-1.0238,-1.0238,-1.0238,-1.0238,0,0,-1.0002,-1.004,-1.0045,-1.0058,-1.0086,-1.0103,-1.0124,-1.0148,-1.0159,-1.0179,-1.0196,-1.0225,-1.0226,-1.024,-1.0249,-1.026,-1.0274,-1.026,-1.0261,-1.0262,-1.0298,-1.0297,-1.0299,-1.0277,-1.0278,-1.0278,-1.0296,0,-1.0022,-1.0061,-1.0075,-1.0107,-1.0127,-1.0137,-1.0154,-1.0173,-1.0185,-1.0203,-1.0215,-1.0236,-1.0236,-1.0244,-1.0256,-1.027,-1.0281,-1.0269,-1.0292,-1.0293,-1.0286,-1.0303,-1.0302,-1.0318,-1.0298,-1.0299,-1.0299,0,-1.0051,-1.0072,-1.0106,-1.013,-1.0139,-1.0155,-1.0177,-1.0195,-1.0214,-1.0222,-1.0237,-1.0245,-1.0266,-1.0261,-1.0289,-1.028,-1.029,-1.0298,-1.0299,-1.0302,-1.0297,-1.0306,-1.0324,-1.0326,-1.0303,-1.0303,-1.0303,0,-1.0057,-1.0093,-1.0118,-1.0129,-1.0158,-1.0169,-1.0181,-1.0201,-1.0214,-1.0233,-1.0241,-1.0261,-1.0273,-1.0288,-1.0301,-1.0297,-1.0326,-1.0323,-1.0332,-1.0332,-1.0339,-1.0338,-1.0358,-1.0345,-1.0345,-1.0345,-1.0345,0,-1.0078,-1.0098,-1.0121,-1.0136,-1.0158,-1.0173,-1.0194,-1.0206,-1.0223,-1.024,-1.0249,-1.0264,-1.028,-1.0296,-1.0306,-1.0327,-1.0332,-1.0338,-1.034,-1.0337,-1.0336,-1.0344,-1.0343,-1.0346,-1.0346,-1.0345,-1.0345,0,-1.0089,-1.0105,-1.0133,-1.0157,-1.0164,-1.0179,-1.02,-1.0214,-1.0225,-1.0246,-1.0252,-1.027,-1.029,-1.0304,-1.0329,-1.0336,-1.0357,-1.036,-1.0351,-1.0352,-1.0361,-1.0359,-1.0386,-1.039,-1.0374,-1.0375,-1.0375,0,-1.0102,-1.0117,-1.0144,-1.0156,-1.0168,-1.0188,-1.0201,-1.0215,-1.0228,-1.0251,-1.0262,-1.0282,-1.03,-1.033,-1.0345,-1.0364,-1.0367,-1.0375,-1.037,-1.0366,-1.0367,-1.0366,-1.0367,-1.0376,-1.0376,-1.0376,-1.0376,0,-1.0122,-1.0129,-1.0148,-1.017,-1.0185,-1.0203,-1.022,-1.0229,-1.0246,-1.026,-1.0281,-1.0294,-1.032,-1.0339,-1.0359,-1.0371,-1.0376,-1.0377,-1.038,-1.0378,-1.0372,-1.0375,-1.0353,-1.0377,-1.0377,-1.0377,-1.0377,-1.0377,-1.0134,-1.0148,-1.0168,-1.0189,-1.0203,-1.0219,-1.0233,-1.0247,-1.0264,-1.0287,-1.0294,-1.0315,-1.0332,-1.036,-1.0371,-1.0387,-1.0386,-1.0391,-1.0392,-1.0393,-1.0392,-1.0369,-1.039,-1.039,-1.039,-1.039,-1.039,0,-1.0154,-1.0168,-1.0186,-1.0211,-1.0226,-1.023,-1.0249,-1.0262,-1.028,-1.0297,-1.0313,-1.0336,-1.0355,-1.037,-1.0389,-1.0399,-1.0401,-1.0403,-1.0403,-1.0405,-1.0392,-1.0387,-1.04,-1.04,-1.04,-1.04,-1.04,-1.04,-1.0167,-1.019,-1.0199,-1.0228,-1.0241,-1.0263,-1.0273,-1.0287,-1.03,-1.0325,-1.0341,-1.0351,-1.0367,-1.0386,-1.0403,-1.0407,-1.0413,-1.0415,-1.0419,-1.0407,-1.0406,-1.0405,-1.04,-1.0416,-1.0416,-1.043,-1.0431,-1.0431]}]]